Find Starlink 1564

NORAD ID: 46058 Int'l Des: 2020-055 Owner: SPXS Country: US Constellation: starlink operational
LEOCIRCULAR

当前视图

正在加载3D地球...

About Starlink 1564

Starlink 1564 (NORAD 46058) is a starlink constellation satellite (v1.0) launched Aug 7, 2020 by SPXS of US. It operates in LEO, CIRCULAR orbit with a mass of 260.00 kg.

关于 Starlink 1564

正在加载描述...

即将过境

Passes for default location (London). Set your location on the main map for personalized predictions.

高度历史

Loading altitude history...

两行轨道根数

1 46058U 20055AH 26170.90058776 -.00000293 00000-0 22441-5 0 9996
2 46058 53.1622 359.6084 0001355 91.5786 268.5370 15.30190578324716
Epoch: Jun 19, 2026 • Age: 42 hours

当前状态

高度 483.8 km
速度 7.62 km/s
星下点 -27.37°S, 54.81°E
发射日期 Aug 7, 2020
运行时间 5.8 years
类型 internet

技术详情

分类 Payload
质量 260.00 kg
干质量 248.00 kg
总质量 260.00 kg
长度 0.20 m
直径 2.80 m
跨度 9.00 m
形状 Box + pan
制造商 SPXS
平台类型 Starlink
阶段状态 In Orbit
所有者/国家 SPXS/US

Most Searched